LEDSAT (49069 NORAD) Tracking and Keplerian Element Data

This shows tracking and keplerian element data for the satellite.

Feedback or suggestion? Click here.




ElementValue
Catalog49069
NameLEDSAT
Epoch Orbit6947
Epoch Day325.18219022
Epoch Year2022
RAAN34.9593
Inclination97.5101
Eccentricity0.002769
Argument of Perigee115.9168
Mean Anonmoly244.492
Mean Motion15.10069595
Decay Rate4.241E-05
L11 49069U 21073D 22325.18219022 .00004241 00000+0 26215-3 0 9999
L22 49069 97.5101 34.9593 0027690 115.9168 244.4920 15.10069595 69473



Live tracking and technical data element details for LEDSAT (NORAD 49069). LEDSAT can be tracked NOW for your location showing map with azimuth and elevation plus other details from your city location.







IsCatalogInMostPopularTable: catalog: 49069, numindb: 39
Update: records affected: 1



GetName: 49069 LEDSAT

Hit Count: updated at: Mon, 28 Nov 2022 05:17:24 GMT